period_start,C,m1,H,J0,J1,J2,J3,J4,J5,JA,JB,JC,JD,JJ,JK,JN,#
2013-10-08 00:00:14,0.00,0.40,0.00,24.66,28.07,30.82,5.83,29.88,987.94,2046.00,3353.00,3227.00,3507.97,350.17,313.22,9.42,0000 0000 0000 0000 000000
2013-10-08 00:01:14,0.00,0.40,0.00,24.70,28.07,30.81,5.98,29.79,987.93,2046.01,3353.00,3227.00,3507.97,350.93,313.36,9.42,0000 0000 0000 0000 000000
2013-10-08 00:02:14,0.00,0.40,0.00,24.70,28.07,30.83,5.97,29.88,987.92,2046.00,3353.00,3227.00,3507.98,350.37,313.30,9.43,0000 0000 0000 0000 000000
2013-10-08 00:03:15,0.00,0.40,0.00,24.81,28.07,30.81,5.86,29.79,987.98,2046.00,3353.00,3227.00,3507.93,350.05,312.50,9.44,0000 0000 0000 0000 000000
2013-10-08 00:04:15,0.01,0.40,0.00,24.77,28.07,30.80,5.60,29.54,988.07,2046.00,3353.00,3226.99,3507.81,349.10,312.16,9.44,0000 0000 0000 0000 000000
2013-10-08 00:05:15,0.01,0.40,0.00,24.66,28.07,30.83,5.63,29.58,988.05,2046.00,3353.00,3226.99,3507.81,349.48,312.80,9.45,0000 0000 0000 0000 000000
2013-10-08 00:06:16,0.01,0.40,0.00,24.63,28.07,30.81,5.70,29.75,988.13,2046.00,3352.99,3226.99,3507.61,349.92,313.09,9.45,0000 0000 0000 0000 000000
2013-10-08 00:07:16,0.02,0.40,0.00,24.67,28.07,30.86,5.97,29.63,988.12,2046.00,3352.98,3226.99,3507.58,350.25,313.38,9.46,0000 0000 0000 0000 000000
2013-10-08 00:08:16,0.01,0.40,0.00,24.58,28.07,30.90,5.88,29.54,988.16,2046.00,3352.99,3226.96,3507.57,349.74,312.99,9.47,0000 0000 0000 0000 000000
2013-10-08 00:09:16,0.00,0.40,0.00,24.59,28.07,30.90,5.65,29.50,988.18,2046.00,3352.99,3226.98,3507.56,349.78,313.03,9.47,0000 0000 0000 0000 000000
2013-10-08 00:10:16,0.00,0.40,0.00,24.52,28.07,30.89,5.80,29.63,988.24,2046.00,3352.99,3226.99,3507.39,349.79,313.13,9.48,0000 0000 0000 0000 000000
2013-10-08 00:11:17,0.01,0.40,0.00,24.58,28.07,30.84,5.84,29.63,988.25,2046.00,3352.97,3226.99,3507.20,349.63,312.99,9.48,0000 0000 0000 0000 000000
2013-10-08 00:12:17,0.02,0.40,0.00,24.64,28.07,30.82,6.07,29.75,988.25,2046.00,3352.94,3226.97,3507.19,350.93,314.03,9.49,0000 0000 0000 0000 000000
2013-10-08 00:13:17,0.01,0.40,0.00,24.67,28.07,30.81,5.91,29.83,988.28,2046.00,3352.92,3226.96,3507.15,350.80,313.88,9.49,0000 0000 0000 0000 000000
2013-10-08 00:14:18,0.00,0.40,0.00,24.65,28.07,30.83,5.77,29.58,988.27,2046.00,3352.93,3226.95,3507.25,349.93,313.11,9.50,0000 0000 0000 0000 000000
2013-10-08 00:15:18,-0.01,0.40,0.00,24.57,28.07,30.84,5.86,29.54,988.28,2046.00,3352.93,3226.97,3507.32,350.78,313.70,9.51,0000 0000 0000 0000 000000
2013-10-08 00:16:18,-0.01,0.40,0.00,24.47,28.07,30.82,5.61,29.67,988.29,2046.00,3352.90,3226.96,3507.19,348.99,312.47,9.51,0000 0000 0000 0000 000000
2013-10-08 00:17:18,0.01,0.40,0.00,24.45,28.07,30.80,5.92,29.79,988.27,2046.00,3352.86,3226.96,3507.14,350.61,313.95,9.52,0000 0000 0000 0000 000000
2013-10-08 00:18:18,0.01,0.40,0.00,24.40,28.07,30.85,6.01,29.67,988.29,2046.00,3352.73,3226.97,3507.09,350.74,313.90,9.52,0000 0000 0000 0000 000000
2013-10-08 00:19:19,0.01,0.40,0.00,24.44,28.07,30.87,5.85,29.75,988.28,2046.00,3352.57,3226.95,3507.10,349.77,313.43,9.53,0000 0000 0000 0000 000000
2013-10-08 00:20:19,0.03,0.40,0.00,24.39,28.07,30.81,5.92,29.63,988.28,2046.00,3352.36,3226.91,3507.08,350.79,314.17,9.54,0000 0000 0000 0000 000000
2013-10-08 00:21:19,0.03,0.40,0.00,24.28,28.07,30.84,5.91,29.63,988.28,2046.00,3352.21,3226.88,3507.05,350.33,313.88,9.54,0000 0000 0000 0000 000000
2013-10-08 00:22:20,0.02,0.40,0.00,24.27,28.07,30.84,5.90,29.71,988.29,2046.00,3352.15,3226.77,3507.03,350.02,313.62,9.55,0000 0000 0000 0000 000000
2013-10-08 00:23:20,0.03,0.40,0.00,24.39,28.07,30.80,5.89,29.71,988.29,2046.00,3352.09,3226.60,3507.01,349.53,313.06,9.55,0000 0000 0000 0000 000000
2013-10-08 00:24:20,0.04,0.40,0.00,24.52,28.07,30.88,6.08,29.83,988.29,2046.00,3352.07,3226.42,3507.01,351.22,314.41,9.56,0000 0000 0000 0000 000000
2013-10-08 00:25:21,0.02,0.40,0.00,24.70,28.07,30.82,5.79,29.71,988.29,2046.00,3352.10,3226.56,3507.02,350.96,314.18,9.57,0000 0000 0000 0000 000000
2013-10-08 00:26:21,-0.01,0.40,0.00,24.71,28.07,30.84,5.72,29.75,988.29,2046.00,3352.09,3226.51,3507.00,349.17,312.39,9.57,0000 0000 0000 0000 000000
2013-10-08 00:27:21,0.01,0.40,0.00,24.56,28.07,30.81,5.67,29.83,988.29,2046.00,3352.06,3226.37,3507.00,349.62,312.94,9.58,0000 0000 0000 0000 000000
2013-10-08 00:28:21,0.03,0.40,0.00,24.48,28.07,30.82,5.77,29.71,988.29,2046.00,3352.05,3226.24,3507.00,350.00,313.06,9.58,0000 0000 0000 0000 000000
2013-10-08 00:29:22,0.02,0.40,0.00,24.44,28.07,30.79,6.01,29.67,988.29,2046.00,3352.02,3226.14,3507.00,351.01,314.32,9.59,0000 0000 0000 0000 000000
2013-10-08 00:30:22,0.01,0.40,0.00,24.35,28.07,30.82,5.77,29.63,988.29,2046.00,3352.02,3226.22,3507.00,349.80,313.27,9.59,0000 0000 0000 0000 000000
2013-10-08 00:31:22,-0.01,0.40,0.00,24.25,28.07,30.83,5.86,29.63,988.29,2046.00,3352.00,3226.25,3507.01,350.46,313.54,9.60,0000 0000 0000 0000 000000
2013-10-08 00:32:23,-0.01,0.40,0.00,24.17,28.07,30.83,6.08,29.79,988.29,2046.00,3352.00,3226.26,3507.00,349.32,313.09,9.61,0000 0000 0000 0000 000000
2013-10-08 00:33:23,0.01,0.40,0.00,24.02,28.07,30.82,5.80,29.67,988.29,2046.00,3352.00,3226.14,3507.00,349.93,313.79,9.61,0000 0000 0000 0000 000000
2013-10-08 00:34:23,0.02,0.40,0.00,23.97,28.07,30.83,5.80,29.75,988.29,2046.00,3352.00,3226.05,3507.00,350.27,314.05,9.62,0000 0000 0000 0000 000000
2013-10-08 00:35:23,0.01,0.40,0.00,23.91,28.07,30.81,5.71,29.67,988.29,2046.00,3352.00,3226.04,3507.00,349.40,313.44,9.62,0000 0000 0000 0000 000000
2013-10-08 00:36:24,0.00,0.40,0.00,23.96,28.07,30.86,5.84,29.67,988.29,2046.00,3352.00,3226.02,3507.00,350.39,314.27,9.63,0000 0000 0000 0000 000000
2013-10-08 00:37:24,0.00,0.40,0.00,23.98,28.07,30.86,5.83,30.17,988.29,2046.00,3352.00,3226.02,3507.00,350.02,313.92,9.64,0000 0000 0000 0000 000000
2013-10-08 00:38:24,0.00,0.40,0.00,23.97,28.07,30.92,6.04,30.00,988.29,2046.00,3352.00,3226.00,3507.00,350.67,314.14,9.64,0000 0000 0000 0000 000000
2013-10-08 00:39:25,0.00,0.40,0.00,24.03,28.07,30.90,5.90,29.71,988.28,2046.00,3351.98,3226.00,3506.99,350.37,313.89,9.65,0000 0000 0000 0000 000000
2013-10-08 00:40:25,0.00,0.40,0.00,24.12,28.07,30.86,5.90,29.83,988.28,2046.00,3351.98,3226.00,3506.99,350.21,313.94,9.65,0000 0000 0000 0000 000000
2013-10-08 00:41:25,0.00,0.40,0.00,24.12,28.07,30.92,5.82,30.00,988.27,2046.00,3351.97,3226.00,3506.98,350.12,313.83,9.66,0000 0000 0000 0000 000000
2013-10-08 00:42:26,0.00,0.40,0.00,24.14,28.07,30.89,5.79,29.92,988.28,2046.00,3351.97,3226.00,3506.99,349.19,313.68,9.66,0000 0000 0000 0000 000000
2013-10-08 00:43:26,0.00,0.40,0.00,24.10,28.07,30.90,5.86,30.00,988.29,2046.00,3351.98,3226.00,3506.99,349.08,312.88,9.67,0000 0000 0000 0000 000000
2013-10-08 00:44:26,0.00,0.40,0.00,24.04,28.07,30.92,5.77,29.67,988.27,2046.00,3351.97,3226.00,3506.97,349.74,313.60,9.68,0000 0000 0000 0000 000000
2013-10-08 00:45:26,0.00,0.40,0.00,23.93,28.07,30.94,5.70,29.67,988.28,2046.00,3351.95,3226.00,3506.98,349.44,313.46,9.68,0000 0000 0000 0000 000000
2013-10-08 00:46:27,0.00,0.40,0.00,23.86,28.07,30.90,5.91,30.00,988.24,2046.00,3351.96,3226.00,3506.96,350.58,314.76,9.69,0000 0000 0000 0000 000000
2013-10-08 00:47:27,0.00,0.40,0.00,23.78,28.07,30.88,5.94,29.92,988.26,2046.00,3351.94,3226.00,3506.97,350.62,314.65,9.69,0000 0000 0000 0000 000000
2013-10-08 00:48:27,0.00,0.40,0.00,23.68,28.08,30.88,5.93,29.83,988.27,2046.00,3351.91,3226.00,3506.95,350.28,314.55,9.70,0000 0000 0000 0000 000000
2013-10-08 00:49:28,0.00,0.40,0.00,23.64,28.08,30.86,5.75,29.83,988.27,2046.00,3351.91,3226.00,3506.94,350.08,314.26,9.71,0000 0000 0000 0000 000000
2013-10-08 00:50:28,0.00,0.40,0.00,23.69,28.08,30.88,5.67,29.75,988.26,2046.00,3351.74,3226.00,3506.90,349.48,313.74,9.71,0000 0000 0000 0000 000000
2013-10-08 00:51:28,0.03,0.40,0.00,23.72,28.08,30.89,5.73,29.67,988.22,2046.00,3351.55,3225.99,3506.83,349.85,314.01,9.72,0000 0000 0000 0000 000000
2013-10-08 00:52:29,0.02,0.40,0.00,23.74,28.07,30.91,5.83,29.58,988.22,2046.00,3351.56,3225.99,3506.82,349.81,313.84,9.72,0000 0000 0000 0000 000000
2013-10-08 00:53:29,0.00,0.40,0.00,23.78,28.08,30.93,5.78,29.54,988.20,2046.00,3351.55,3225.99,3506.76,350.23,314.29,9.73,0000 0000 0000 0000 000000
2013-10-08 00:54:29,0.02,0.40,0.00,23.80,28.08,30.95,5.74,29.63,988.22,2046.00,3351.46,3225.99,3506.71,349.13,313.29,9.73,0000 0000 0000 0000 000000
2013-10-08 00:55:29,0.01,0.40,0.00,23.71,28.08,30.92,5.89,29.83,988.21,2046.00,3351.39,3225.99,3506.70,349.75,313.94,9.74,0000 0000 0000 0000 000000
2013-10-08 00:56:30,0.02,0.40,0.00,23.66,28.08,30.91,5.85,29.67,988.22,2046.00,3351.24,3225.98,3506.57,349.43,313.69,9.75,0000 0000 0000 0000 000000
2013-10-08 00:57:30,0.02,0.40,0.00,23.56,28.07,30.90,5.83,29.58,988.19,2046.00,3351.23,3225.99,3506.60,349.94,314.40,9.75,0000 0000 0000 0000 000000
2013-10-08 00:58:30,0.01,0.40,0.00,23.50,28.08,30.86,5.98,29.88,988.17,2046.00,3351.18,3225.98,3506.55,350.35,314.68,9.76,0000 0000 0000 0000 000000
2013-10-08 00:59:31,0.01,0.40,0.00,23.46,28.08,30.88,5.97,30.00,988.21,2045.99,3351.11,3225.99,3506.42,351.22,315.70,9.76,0000 0000 0000 0000 000000
2013-10-08 01:00:31,0.02,0.40,0.00,23.36,28.08,30.89,5.93,29.71,988.11,2045.99,3351.09,3225.99,3506.25,350.49,314.94,9.77,0000 0000 0000 0000 000000
2013-10-08 01:01:31,0.01,0.40,0.00,23.34,28.08,30.91,5.84,29.54,988.09,2045.99,3351.07,3225.98,3506.27,350.47,314.94,9.78,0000 0000 0000 0000 000000
2013-10-08 01:02:32,0.00,0.40,0.00,23.37,28.07,30.92,5.83,29.71,988.13,2045.99,3351.04,3225.99,3506.24,351.31,315.67,9.78,0000 0000 0000 0000 000000
2013-10-08 01:03:32,0.00,0.40,0.00,23.39,28.07,30.93,5.87,29.58,988.14,2045.98,3351.04,3225.99,3506.29,349.88,314.37,9.79,0000 0000 0000 0000 000000
2013-10-08 01:04:32,0.00,0.40,0.00,23.44,28.07,30.94,5.99,29.79,988.16,2045.98,3351.05,3225.99,3506.29,350.64,315.29,9.79,0000 0000 0000 0000 000000
2013-10-08 01:05:32,0.00,0.40,0.00,23.53,28.07,30.90,5.88,29.71,988.02,2045.99,3351.04,3225.99,3506.38,350.52,314.79,9.80,0000 0000 0000 0000 000000
2013-10-08 01:06:33,0.00,0.40,0.00,23.53,28.07,30.93,5.71,29.71,988.15,2045.99,3351.02,3225.99,3506.32,350.01,314.36,9.81,0000 0000 0000 0000 000000
2013-10-08 01:07:33,0.00,0.40,0.00,23.54,28.07,30.90,5.69,29.75,988.24,2045.99,3351.02,3225.99,3506.28,349.27,313.73,9.81,0000 0000 0000 0000 000000
2013-10-08 01:08:33,0.01,0.40,0.00,23.57,28.07,30.93,5.63,29.58,988.28,2045.99,3351.00,3225.98,3506.16,349.30,313.57,9.82,0000 0000 0000 0000 000000
2013-10-08 01:09:33,0.02,0.40,0.00,23.54,28.07,30.95,6.07,30.04,988.29,2045.99,3351.00,3225.97,3506.08,350.69,315.04,9.82,0000 0000 0000 0000 000000
2013-10-08 01:10:34,0.01,0.40,0.00,23.58,28.07,30.90,5.92,29.71,988.29,2045.99,3351.01,3225.96,3506.05,348.88,313.50,9.83,0000 0000 0000 0000 000000
2013-10-08 01:11:34,0.00,0.40,0.00,23.65,28.07,30.92,5.77,29.67,988.29,2045.99,3351.01,3225.96,3506.04,349.71,314.14,9.83,0000 0000 0000 0000 000000
2013-10-08 01:12:34,0.01,0.40,0.00,23.72,28.07,30.93,5.68,29.63,988.29,2045.98,3351.01,3225.94,3506.01,349.18,313.21,9.84,0000 0000 0000 0000 000000
2013-10-08 01:13:34,0.00,0.40,0.00,23.71,28.07,30.87,5.77,29.63,988.29,2045.99,3351.00,3225.93,3506.00,348.50,313.14,9.85,0000 0000 0000 0000 000000
2013-10-08 01:14:35,0.00,0.40,0.00,23.77,28.07,30.90,5.84,29.88,988.29,2045.99,3351.00,3225.92,3506.01,350.24,314.34,9.85,0000 0000 0000 0000 000000
2013-10-08 01:15:35,0.01,0.40,0.00,23.81,28.07,30.91,5.60,29.67,988.29,2045.98,3351.00,3225.89,3506.00,349.35,313.50,9.86,0000 0000 0000 0000 000000
2013-10-08 01:16:35,0.00,0.40,0.00,23.88,28.07,30.85,5.67,29.88,988.29,2045.99,3351.01,3225.91,3506.00,349.98,314.27,9.86,0000 0000 0000 0000 000000
2013-10-08 01:17:35,0.00,0.40,0.00,23.88,28.07,30.87,5.88,29.67,988.30,2045.98,3351.01,3225.80,3506.00,350.26,314.24,9.87,0000 0000 0000 0000 000000
2013-10-08 01:18:36,0.03,0.40,0.00,23.89,28.07,30.90,5.83,29.71,988.31,2045.99,3351.00,3225.68,3506.00,349.71,313.86,9.88,0000 0000 0000 0000 000000
2013-10-08 01:19:36,0.03,0.40,0.00,23.84,28.07,30.88,5.84,29.71,988.30,2045.99,3351.00,3225.60,3506.00,349.41,313.52,9.88,0000 0000 0000 0000 000000
2013-10-08 01:20:36,0.02,0.40,0.00,23.81,28.07,30.88,5.90,29.83,988.30,2045.99,3351.00,3225.48,3506.00,349.89,313.98,9.89,0000 0000 0000 0000 000000
2013-10-08 01:21:37,0.01,0.40,0.00,23.72,28.07,30.86,5.76,29.79,988.31,2045.97,3351.00,3225.45,3506.00,349.64,313.86,9.89,0000 0000 0000 0000 000000
2013-10-08 01:22:37,0.01,0.40,0.00,23.66,28.07,30.89,5.93,29.75,988.32,2045.97,3351.00,3225.27,3506.00,350.48,314.68,9.90,0000 0000 0000 0000 000000
2013-10-08 01:23:37,0.03,0.40,0.00,23.67,28.07,30.90,5.76,29.83,988.31,2045.98,3350.99,3225.20,3505.99,349.72,313.99,9.90,0000 0000 0000 0000 000000
2013-10-08 01:24:37,0.02,0.40,0.00,23.58,28.07,30.90,5.61,29.50,988.33,2045.98,3350.98,3225.21,3505.98,349.37,313.75,9.91,0000 0000 0000 0000 000000
2013-10-08 01:25:38,0.00,0.40,0.00,23.45,28.07,30.92,5.84,29.88,988.31,2045.98,3350.98,3225.18,3505.98,349.71,313.92,9.92,0000 0000 0000 0000 000000
2013-10-08 01:26:38,0.00,0.40,0.00,23.45,28.07,30.90,5.63,29.54,988.32,2045.96,3350.96,3225.11,3505.98,349.38,313.42,9.92,0000 0000 0000 0000 000000
2013-10-08 01:27:38,0.01,0.40,0.00,23.48,28.07,30.86,5.76,29.75,988.33,2045.97,3350.95,3225.07,3505.99,350.29,314.13,9.93,0000 0000 0000 0000 000000
2013-10-08 01:28:38,0.02,0.40,0.00,23.47,28.07,30.90,6.01,30.00,988.32,2045.98,3350.85,3225.03,3505.98,350.44,314.84,9.93,0000 0000 0000 0000 000000
2013-10-08 01:29:39,0.01,0.40,0.00,23.49,28.07,30.87,5.77,29.67,988.30,2045.97,3350.86,3225.08,3505.98,349.85,314.63,9.94,0000 0000 0000 0000 000000
2013-10-08 01:30:39,0.00,0.40,0.00,23.59,28.07,30.92,5.83,29.79,988.33,2045.98,3350.81,3225.05,3505.98,350.24,314.55,9.95,0000 0000 0000 0000 000000
2013-10-08 01:31:39,0.01,0.40,0.00,23.68,28.07,30.89,5.77,29.67,988.31,2045.98,3350.70,3225.04,3505.96,349.33,313.39,9.95,0000 0000 0000 0000 000000
2013-10-08 01:32:39,0.01,0.40,0.00,23.65,28.07,30.91,5.76,29.58,988.31,2045.97,3350.58,3225.04,3505.94,349.80,314.12,9.96,0000 0000 0000 0000 000000
2013-10-08 01:33:40,0.00,0.40,0.00,23.68,28.07,30.87,6.00,29.92,988.31,2045.98,3350.64,3225.02,3505.96,350.65,314.91,9.96,0000 0000 0000 0000 000000
2013-10-08 01:34:40,0.01,0.40,0.00,23.60,28.07,30.88,5.91,29.67,988.32,2045.98,3350.57,3225.03,3505.91,350.95,315.17,9.97,0000 0000 0000 0000 000000
2013-10-08 01:35:40,0.02,0.40,0.00,23.54,28.07,30.90,5.99,29.71,988.31,2045.98,3350.41,3225.02,3505.84,350.17,314.52,9.98,0000 0000 0000 0000 000000
2013-10-08 01:36:40,0.01,0.40,0.00,23.52,28.07,30.90,5.72,29.71,988.31,2045.97,3350.47,3225.01,3505.88,350.03,313.92,9.98,0000 0000 0000 0000 000000
2013-10-08 01:37:41,-0.02,0.40,0.00,23.45,28.07,30.95,5.93,29.63,988.30,2045.97,3350.42,3225.03,3505.90,350.68,315.25,9.99,0000 0000 0000 0000 000000
2013-10-08 01:38:41,-0.00,0.40,0.00,23.41,28.07,30.92,5.78,29.75,988.30,2045.99,3350.38,3225.03,3505.88,349.92,314.46,9.99,0000 0000 0000 0000 000000
2013-10-08 01:39:41,0.02,0.40,0.00,23.39,28.07,30.90,5.81,29.79,988.30,2045.98,3350.26,3225.02,3505.86,350.17,314.68,10.00,0000 0000 0000 0000 000000
2013-10-08 01:40:42,0.01,0.40,0.00,23.36,28.07,30.88,5.86,29.79,988.30,2045.99,3350.17,3225.01,3505.84,350.19,315.00,10.00,0000 0000 0000 0000 000000
2013-10-08 01:41:42,0.01,0.40,0.00,23.33,28.07,30.90,5.77,30.08,988.30,2045.99,3350.07,3225.01,3505.67,351.05,315.54,10.01,0000 0000 0000 0000 000000
2013-10-08 01:42:42,0.05,0.40,0.00,23.29,28.07,30.92,5.87,30.13,988.30,2045.96,3350.03,3225.00,3505.43,350.27,314.55,10.02,0000 0000 0000 0000 000000
2013-10-08 01:43:42,-0.01,0.40,0.00,23.28,28.07,30.92,5.80,29.96,988.30,2045.95,3350.02,3225.00,3505.46,350.25,314.88,10.02,0000 0000 0000 0000 000000
2013-10-08 01:44:43,-0.00,0.40,0.00,23.28,28.07,30.93,5.87,29.79,988.30,2045.96,3350.01,3225.00,3505.43,350.60,315.26,10.03,0000 0000 0000 0000 000000
2013-10-08 01:45:43,0.02,0.40,0.00,23.31,28.07,30.93,5.96,29.88,988.30,2045.96,3350.01,3225.00,3505.36,350.33,314.91,10.03,0000 0000 0000 0000 000000
2013-10-08 01:46:43,0.00,0.40,0.00,23.35,28.07,30.93,5.80,29.79,988.30,2045.96,3350.00,3225.00,3505.34,349.51,314.35,10.04,0000 0000 0000 0000 000000
2013-10-08 01:47:43,0.01,0.40,0.00,23.38,28.07,30.92,5.77,29.63,988.30,2045.96,3350.00,3225.00,3505.37,349.62,313.74,10.05,0000 0000 0000 0000 000000
2013-10-08 01:48:44,-0.03,0.40,0.00,23.42,28.07,30.91,5.90,29.75,988.30,2045.94,3350.02,3225.00,3505.38,349.83,314.35,10.05,0000 0000 0000 0000 000000
2013-10-08 01:49:44,0.00,0.40,0.00,23.47,28.07,30.89,5.82,29.63,988.30,2045.94,3350.02,3225.00,3505.27,349.61,313.69,10.06,0000 0000 0000 0000 000000
2013-10-08 01:50:44,0.00,0.40,0.00,23.48,28.07,30.88,5.92,29.88,988.30,2045.94,3350.01,3225.00,3505.16,349.68,314.14,10.06,0000 0000 0000 0000 000000
2013-10-08 01:51:45,0.02,0.40,0.00,23.43,28.07,30.90,5.78,29.63,988.30,2045.96,3350.00,3225.00,3505.13,350.00,314.07,10.07,0000 0000 0000 0000 000000
2013-10-08 01:52:45,-0.02,0.40,0.00,23.40,28.07,30.91,5.82,29.79,988.30,2045.95,3350.00,3225.00,3505.16,349.54,314.35,10.07,0000 0000 0000 0000 000000
2013-10-08 01:53:45,0.02,0.40,0.00,23.43,28.07,30.91,5.63,29.67,988.30,2045.97,3350.01,3225.00,3505.16,348.83,313.38,10.08,0000 0000 0000 0000 000000
2013-10-08 01:54:45,0.01,0.40,0.00,23.52,28.07,30.86,5.77,29.79,988.30,2045.95,3350.00,3225.00,3505.13,350.05,314.41,10.09,0000 0000 0000 0000 000000
2013-10-08 01:55:45,0.00,0.40,0.00,23.53,28.07,30.85,5.73,29.71,988.30,2045.96,3350.01,3225.00,3505.19,350.46,314.78,10.09,0000 0000 0000 0000 000000
2013-10-08 01:56:46,0.00,0.40,0.00,23.46,28.07,30.85,5.87,29.71,988.30,2045.95,3350.00,3225.00,3505.20,349.53,313.71,10.10,0000 0000 0000 0000 000000
2013-10-08 01:57:46,0.00,0.40,0.00,23.39,28.07,30.82,5.98,29.92,988.30,2045.95,3350.00,3225.00,3505.10,350.74,315.15,10.10,0000 0000 0000 0000 000000
2013-10-08 01:58:46,0.01,0.40,0.00,23.33,28.07,30.86,5.84,29.92,988.30,2045.94,3350.00,3225.00,3505.06,350.17,314.74,10.11,0000 0000 0000 0000 000000
2013-10-08 01:59:47,-0.01,0.40,0.00,23.32,28.07,30.86,5.77,29.63,988.30,2045.94,3350.00,3224.99,3505.05,350.11,314.49,10.12,0000 0000 0000 0000 000000
2013-10-08 02:00:47,0.01,0.40,0.00,23.29,28.07,30.90,5.82,29.71,988.30,2045.92,3350.00,3224.99,3505.03,350.10,314.71,10.12,0000 0000 0000 0000 000000
2013-10-08 02:01:47,-0.01,0.40,0.00,23.32,28.06,30.88,5.99,30.00,988.30,2045.95,3350.00,3224.99,3505.05,349.99,314.82,10.13,0000 0000 0000 0000 000000
2013-10-08 02:02:48,0.02,0.40,0.00,23.29,28.06,30.87,6.02,29.79,988.30,2045.93,3350.00,3224.99,3505.02,350.93,315.59,10.13,0000 0000 0000 0000 000000
2013-10-08 02:03:48,0.00,0.40,0.00,23.30,28.06,30.89,5.77,29.58,988.30,2045.91,3349.99,3224.99,3505.01,350.11,314.42,10.14,0000 0000 0000 0000 000000
2013-10-08 02:04:48,-0.02,0.40,0.00,23.37,28.06,30.90,5.93,29.92,988.30,2045.94,3349.99,3224.99,3505.04,349.87,314.44,10.15,0000 0000 0000 0000 000000
2013-10-08 02:05:49,0.02,0.40,0.00,23.39,28.06,30.89,5.65,29.54,988.30,2045.97,3349.99,3224.99,3505.06,348.73,313.39,10.15,0000 0000 0000 0000 000000
2013-10-08 02:06:49,0.02,0.40,0.00,23.39,28.06,30.92,5.94,29.67,988.30,2045.96,3349.98,3224.98,3505.06,349.77,314.42,10.16,0000 0000 0000 0000 000000
2013-10-08 02:07:49,-0.01,0.40,0.00,23.36,28.06,30.90,5.86,29.71,988.30,2045.95,3349.98,3224.99,3505.03,349.64,314.06,10.16,0000 0000 0000 0000 000000
2013-10-08 02:08:49,-0.00,0.40,0.00,23.31,28.06,30.89,5.79,29.63,988.30,2045.96,3349.98,3224.99,3505.02,350.48,315.04,10.17,0000 0000 0000 0000 000000
2013-10-08 02:09:49,0.00,0.40,0.00,23.31,28.06,30.86,5.77,29.83,988.31,2045.93,3349.97,3224.97,3505.01,349.74,314.39,10.17,0000 0000 0000 0000 000000
2013-10-08 02:10:50,-0.01,0.40,0.00,23.32,28.06,30.86,5.84,29.63,988.30,2045.93,3349.98,3224.95,3505.01,349.14,313.84,10.18,0000 0000 0000 0000 000000
2013-10-08 02:11:50,-0.00,0.40,0.00,23.37,28.06,30.87,5.67,29.75,988.35,2045.92,3349.94,3224.96,3505.00,350.17,314.72,10.19,0000 0000 0000 0000 000000
2013-10-08 02:12:50,0.00,0.40,0.00,23.35,28.06,30.86,5.66,29.54,988.38,2045.92,3349.89,3224.94,3505.00,348.73,313.45,10.19,0000 0000 0000 0000 000000
2013-10-08 02:13:50,0.00,0.40,0.00,23.33,28.05,30.91,5.88,29.71,988.35,2045.89,3349.76,3224.94,3505.00,350.66,314.83,10.20,0000 0000 0000 0000 000000
2013-10-08 02:14:51,-0.02,0.40,0.00,23.27,28.05,30.89,5.86,29.83,988.34,2045.92,3349.75,3224.94,3505.00,349.95,314.67,10.20,0000 0000 0000 0000 000000
2013-10-08 02:15:51,0.05,0.40,0.00,23.23,28.05,30.86,5.90,29.75,988.36,2045.93,3349.72,3224.93,3505.00,349.64,314.39,10.21,0000 0000 0000 0000 000000
2013-10-08 02:16:51,0.01,0.40,0.00,23.21,28.06,30.89,5.75,29.58,988.37,2045.89,3349.67,3224.96,3505.00,348.66,313.76,10.22,0000 0000 0000 0000 000000
2013-10-08 02:17:51,-0.02,0.40,0.00,23.21,28.06,30.89,5.67,29.67,988.44,2045.87,3349.61,3224.92,3505.00,349.05,313.91,10.22,0000 0000 0000 0000 000000
2013-10-08 02:18:52,0.01,0.40,0.00,23.20,28.06,30.88,5.70,29.71,988.46,2045.87,3349.57,3224.91,3505.00,350.21,314.97,10.23,0000 0000 0000 0000 000000
2013-10-08 02:19:52,0.00,0.40,0.00,23.18,28.06,30.86,5.57,29.71,988.49,2045.86,3349.35,3224.76,3505.00,348.11,313.12,10.23,0000 0000 0000 0000 000000
2013-10-08 02:20:52,0.03,0.40,0.00,23.22,28.06,30.88,5.69,29.71,988.49,2045.92,3349.27,3224.73,3505.00,349.15,314.00,10.24,0000 0000 0000 0000 000000
2013-10-08 02:21:52,0.09,0.41,0.00,23.25,28.06,30.87,5.73,29.83,988.48,2045.92,3349.19,3224.61,3505.00,349.65,314.53,10.24,0000 0000 0000 0000 000000
2013-10-08 02:22:53,0.01,0.41,0.00,23.29,28.06,30.84,5.82,29.92,988.49,2045.92,3349.19,3224.71,3505.00,350.09,315.07,10.25,0000 0000 0000 0000 000000
2013-10-08 02:23:53,-0.03,0.40,0.00,23.31,28.06,30.85,5.90,29.88,988.55,2045.90,3349.22,3224.83,3505.00,349.27,313.98,10.26,0000 0000 0000 0000 000000
2013-10-08 02:24:53,-0.03,0.40,0.00,23.31,28.06,30.86,5.92,29.79,988.68,2045.88,3349.17,3224.78,3505.00,350.81,315.68,10.26,0000 0000 0000 0000 000000
2013-10-08 02:25:53,0.00,0.40,0.00,23.28,28.06,30.86,6.02,29.96,988.68,2045.84,3349.08,3224.52,3504.99,350.42,314.95,10.27,0000 0000 0000 0000 000000
2013-10-08 02:26:53,0.03,0.41,0.00,23.26,28.06,30.87,5.87,29.71,988.66,2045.87,3349.09,3224.46,3504.98,350.03,314.62,10.27,0000 0000 0000 0000 000000
2013-10-08 02:27:54,0.04,0.41,0.00,23.22,28.06,30.84,5.77,29.67,988.65,2045.85,3349.04,3224.37,3504.99,349.67,314.52,10.28,0000 0000 0000 0000 000000
2013-10-08 02:28:54,-0.02,0.41,0.00,23.17,28.06,30.84,5.83,29.75,988.62,2045.86,3349.02,3224.19,3504.97,350.59,315.40,10.29,0000 0000 0000 0000 000000
2013-10-08 02:29:54,0.07,0.41,0.00,23.13,28.06,30.81,5.84,29.83,988.53,2045.87,3349.01,3224.15,3504.97,350.18,315.10,10.29,0000 0000 0000 0000 000000
2013-10-08 02:30:54,0.03,0.41,0.00,23.10,28.07,30.83,5.88,29.75,988.51,2045.86,3349.01,3224.14,3504.95,349.91,314.82,10.30,0000 0000 0000 0000 000000
2013-10-08 02:31:55,0.00,0.41,0.00,23.09,28.07,30.87,6.02,29.96,988.51,2045.88,3349.00,3224.14,3504.97,350.59,314.97,10.30,0000 0000 0000 0000 000000
2013-10-08 02:32:55,0.00,0.41,0.00,23.05,28.07,30.87,5.79,29.75,988.55,2045.90,3349.00,3224.21,3504.98,349.77,315.19,10.31,0000 0000 0000 0000 000000
2013-10-08 02:33:55,0.00,0.41,0.00,23.03,28.07,30.83,5.81,29.83,988.59,2045.90,3349.02,3224.27,3504.99,349.27,314.63,10.32,0000 0000 0000 0000 000000
2013-10-08 02:34:55,0.00,0.41,0.00,23.02,28.07,30.83,5.83,29.79,988.46,2045.90,3349.00,3224.15,3504.98,351.01,315.62,10.32,0000 0000 0000 0000 000000
2013-10-08 02:35:56,0.03,0.41,0.00,23.02,28.06,30.83,5.89,29.83,988.42,2045.95,3349.00,3224.14,3504.99,349.64,314.64,10.33,0000 0000 0000 0000 000000
2013-10-08 02:36:56,0.02,0.41,0.00,23.00,28.07,30.79,5.83,29.54,988.39,2045.96,3349.00,3224.20,3504.97,349.25,314.30,10.33,0000 0000 0000 0000 000000